GW1724 Weather Reports


time (UTC)temp
C
wind
direction
speed
KPH
gust
KPH
rain 1hr
cm
rain 24hr
cm
rain mn
cm
humidity
%
barometer
mb
20260502151548 11 277 3.2 16.1 0.00 0.00 0.00 61 1014.8
20260502123045 11 117 3.2 17.7 0.00 0.00 0.00 66 1014.0
20260502121535 11 84 4.8 16.1 0.00 0.00 0.00 67 1013.9
20260502114537 11 0 6.4 16.1 0.00 0.00 0.00 66 1014.0
20260502113039 11 306 3.2 17.7 0.00 0.00 0.00 64 1014.1
20260502111546 11 0 4.8 17.7 0.00 0.00 0.00 62 1014.0
20260502110035 11 253 6.4 19.3 0.00 0.00 0.00 64 1013.9
20260502104538 11 0 4.8 17.7 0.00 0.00 0.00 71 1013.6
20260502103037 11 0 3.2 12.9 0.00 0.00 0.00 73 1013.5
20260502101536 11 0 1.6 8.0 0.00 0.00 0.00 75 1013.4
20260502070040 9 0 0.0 3.2 0.00 0.00 0.00 86 1012.1
20260502064542 10 0 0.0 1.6 0.00 0.00 0.00 85 1012.2
20260502063046 10 0 0.0 0.0 0.00 0.00 0.00 84 1012.2
20260502061542 10 0 0.0 1.6 0.00 0.00 0.00 83 1012.6
20260502060037 11 0 0.0 3.2 0.00 0.00 0.00 81 1012.8
20260502054535 11 252 1.6 6.4 0.00 0.00 0.00 81 1013.4
20260502053053 11 296 4.8 8.0 0.00 0.00 0.00 80 1013.5
20260502051537 11 270 3.2 11.3 0.00 0.00 0.00 80 1012.5
20260502050037 11 281 1.6 6.4 0.00 0.00 0.00 82 1012.4
20260502044535 10 0 0.0 6.4 0.00 0.00 0.00 84 1012.5
20260502043042 10 0 0.0 3.2 0.00 0.00 0.00 85 1012.5
20260502041539 10 0 0.0 0.0 0.00 0.00 0.00 84 1012.5
20260502040039 10 0 0.0 0.0 0.00 0.00 0.00 83 1012.5
20260502034536 10 0 0.0 0.0 0.00 0.00 0.00 82 1012.5
20260502033057 10 0 0.0 0.0 0.00 0.00 0.00 81 1012.4
20260502031540 10 0 0.0 0.0 0.00 0.00 0.00 79 1012.3
20260502030047 10 0 0.0 0.0 0.00 0.00 0.00 79 1012.1
20260502024537 11 0 0.0 1.6 0.00 0.00 0.00 77 1012.3
20260502023039 11 0 0.0 0.0 0.00 0.00 0.00 75 1012.5
20260502021544 11 0 0.0 1.6 0.00 0.00 0.00 73 1012.3
20260502020044 12 0 0.0 1.6 0.00 0.00 0.00 71 1012.5
20260502014538 12 46 0.0 9.7 0.00 0.00 0.00 70 1012.6
20260502013036 12 38 0.0 4.8 0.00 0.00 0.00 68 1012.1
20260502011544 13 0 0.0 6.4 0.00 0.00 0.00 66 1011.9
20260502010040 13 0 0.0 3.2 0.00 0.00 0.00 63 1011.8
20260502004535 13 80 0.0 11.3 0.00 0.00 0.00 60 1011.5
20260502003043 14 92 0.0 4.8 0.00 0.00 0.00 57 1011.4
20260502001535 15 111 0.0 1.6 0.00 0.00 0.00 54 1011.5
20260502000046 15 0 0.0 1.6 0.00 0.00 0.00 49 1011.3
20260501234540 16 0 0.0 1.6 0.00 0.00 0.00 47 1011.1
20260501233037 17 0 0.0 3.2 0.00 0.00 0.00 44 1011.0
20260501231542 17 0 1.6 8.0 0.00 0.00 0.00 43 1010.9
20260501230046 17 285 1.6 6.4 0.00 0.00 0.00 41 1011.0
20260501224547 18 146 3.2 9.7 0.00 0.00 0.00 40 1011.0
20260501223045 19 0 1.6 11.3 0.00 0.00 0.00 40 1011.2
20260501221548 19 0 3.2 6.4 0.00 0.00 0.00 40 1011.1
20260501220035 19 310 0.0 12.9 0.00 0.00 0.00 40 1011.2
20260501214535 19 260 3.2 11.3 0.00 0.00 0.00 37 1011.4
20260501213041 19 280 4.8 11.3 0.00 0.00 0.00 36 1011.4
20260501211549 20 0 4.8 17.7 0.00 0.00 0.00 35 1011.6
20260501210037 19 300 1.6 14.5 0.00 0.00 0.00 35 1011.5
20260501204535 19 79 3.2 19.3 0.00 0.00 0.00 36 1011.5
20260501203043 19 257 6.4 16.1 0.00 0.00 0.00 36 1011.8
20260501201544 19 255 1.6 12.9 0.00 0.00 0.00 35 1012.1
20260501200037 19 284 4.8 16.1 0.00 0.00 0.00 35 1012.3
20260501194536 18 240 4.8 19.3 0.00 0.00 0.00 35 1012.8
20260501193043 18 40 3.2 19.3 0.00 0.00 0.00 34 1013.1
20260501191543 18 221 4.8 14.5 0.00 0.00 0.00 33 1013.3
20260501190042 18 105 3.2 12.9 0.00 0.00 0.00 35 1013.4
20260501184536 18 298 3.2 14.5 0.00 0.00 0.00 35 1013.6
20260501183037 18 229 6.4 17.7 0.00 0.00 0.00 34 1013.8
20260501181541 18 91 3.2 17.7 0.00 0.00 0.00 34 1013.9
20260501180038 18 0 6.4 22.5 0.00 0.00 0.00 38 1014.0
20260501174542 17 321 3.2 11.3 0.00 0.00 0.00 35 1014.1
20260501173037 16 275 6.4 14.5 0.00 0.00 0.00 35 1014.1
20260501171536 16 133 4.8 11.3 0.00 0.00 0.00 35 1014.3
20260501170037 16 36 6.4 14.5 0.00 0.00 0.00 36 1014.5
20260501164543 16 0 1.6 12.9 0.00 0.00 0.00 39 1014.7
20260501163044 16 207 3.2 8.0 0.00 0.00 0.00 38 1014.9
20260501161541 15 336 1.6 11.3 0.00 0.00 0.00 38 1015.0